www.pogodaiklimat.ru

Погода и климат >> Архив погоды >> Гана >> Тамале


ПОГОДА в Тамале

  • Прогноз погоды в Тамале
  • Монитор погоды в Тамале

АРХИВ ПОГОДЫ в Тамале

Время (UTC), дата Ветер
(напр.,м/с)
 
Видим.   Явления Облачность Т
(С)
Тd
(С)
f
(%)
Тe
(С)
Тes
(С)
Комфортность P
(гПа)
Po
(гПа)
Тmin
(С)
Tmax
(С)
R
(мм)
R24
(мм)
S
(см)
00 15.09 З 1 16 км 9/3 400 м
[Sc Ac trans]
+24.5 +22.1 86 +32 +32 очень
душно
1012.3 992.4 1
06 15.09 Ю 1 16 км 9/9 400 м
[Sc]
+24.5 +22.1 86 +32 +32 очень
душно
1012.2 992.3 +24.3 1
09 15.09 ЮЗ 3 18 км 8/3 400 м
[Cu med, cong Ac trans]
+26.7 +22.5 78 +35 +39 очень
душно
1013.4 993.6
12 15.09 Ю 3 18 км 9/5 400 м
[Cu Sc Ac trans]
+30.0 +24.1 71 +42 +46 опасность
перегрева
1012.1 992.6
18 15.09 З 3 18 км {гроза} 8/3 400 м
[Sc Ac trans]
+27.0 +23.0 79 +36 +36 очень
душно
1010.4 990.7 +30.9
21 15.09 штиль 0 16 км 5/3 400 м
[Sc Ac trans]
+25.4 +23.1 87 +34 +34 очень
душно
1011.5 991.7
00 16.09 штиль 0 16 км 8/3 400 м
[Sc Ac trans Cs]
+24.5 +22.7 90 +32 +32 очень
душно
1011.3 991.4
03 16.09 С 3 16 км 9/4 360 м
[Sc Ac trans]
+24.5 +22.8 90 +32 +32 очень
душно
1010.4 990.5
06 16.09 СВ 2 16 км 6/3 360 м
[Sc Ac trans]
+24.4 +22.8 91 +32 +32 очень
душно
1012.0 992.1 +24.0
09 16.09 З 3 18 км 9/8 330 м
[Cb cap Ac trans]
+27.1 +22.1 74 +35 +36 очень
душно
1013.9 994.1
12 16.09 ЮЗ 5 18 км 8/6 330 м
[Cb cap Ac trans Ci sp]
+29.6 +23.5 70 +40 +44 очень
душно
1011.8 992.2
15 16.09 ЮЗ 4 20 км 8/5 450 м
[Cb cap Ac trans Cs]
+32.0 +23.2 60 +43 +45 опасность
перегрева
1009.4 990.0
18 16.09 Ю 3 20 км 8/4 300 м
[Cb cap Ac trans Cs]
+30.7 +24.5 70 +43 +43 опасность
перегрева
1008.9 989.5 +33.3
21 16.09 ЮВ 1 16 км 5/0
[Ci sp]
+28.0 +24.6 82 +40 +40 очень
душно
1011.0 991.3
00 17.09 штиль 0 16 км 6/3 300 м
[Cb cap Ac trans Ci sp]
+27.2 +24.4 85 +38 +38 очень
душно
1011.6 991.9
03 17.09 СЗ 1 16 км 8/3 330 м
[Sc Ac trans Ci sp]
+26.2 +24.4 90 +37 +37 очень
душно
1010.3 990.5
06 17.09 штиль 0 16 км 9/4 330 м
[Cb cap Ac trans]
+25.5 +23.8 90 +35 +35 очень
душно
1011.5 991.7 +25.5
09 17.09 ЮЗ 1 18 км 9/1 300 м
[Cb cap Ac trans]
+27.5 +23.8 80 +38 +43 очень
душно
1013.2 993.5
12 17.09 ЮВ 2 8000 м гроза, ливневой дождь 9/6 270 м
[Cb cap Ac As]
+22.6 +21.5 94 +30 +34 очень
душно
1013.4 993.3 24
15 17.09 ЮЗ 1 10 км {гроза, дождь} 9/4 300 м
[Sc Ac trans]
+23.4 +22.0 92 +32 +36 очень
душно
1010.2 990.3
12 18.09 ЮЗ 3 16 км {туман} 6/5 400 м
[Cu Sc Ac trans]
+30.0 +23.2 67 +40 +49 очень
душно
1012.5 992.9
15 18.09 З 3 16 км 6/5 400 м
[Cb cap Ac trans]
+32.0 +23.5 61 +43 +47 опасность
перегрева
1009.6 990.2
18 18.09 СЗ 3 16 км 8/4 400 м
[Sc Ac trans]
+29.4 +23.4 70 +40 +40 очень
душно
1009.1 989.6 +32.5
21 18.09 З 1 12 км гроза без осадков 8/3 400 м
[Cb cap Ac trans Ci sp]
+27.7 +23.6 78 +38 +38 очень
душно
1011.9 992.2
00 19.09 З 1 16 км гроза без осадков 8/3 360 м
[Cb cap Ac trans Ci sp]
+26.6 +24.0 86 +37 +37 очень
душно
1012.0 992.2
09 19.09 З 4 12 км {дождь} 9/8 270 м
[Sc Ac As]
+23.9 +21.9 89 +31 +32 очень
душно
1013.2 993.2
21 19.09 СВ 2 16 км 6/3 330 м
[Cb cap Ac trans]
+26.2 +23.5 85 +36 +36 очень
душно
1012.2 992.4
00 20.09 ЮЗ 2 14 км гроза, ливневой дождь 9/6 360 м
[Sc Ac trans]
+25.2 +23.2 89 +34 +34 очень
душно
1012.3 992.4 8
03 20.09 З 2 14 км 9/6 360 м
[Sc Ac trans]
+25.1 +23.3 90 +34 +34 очень
душно
1011.3 991.5
06 20.09 СВ 2 16 км {гроза, дождь} 9/4 360 м
[Sc Ac trans]
+25.4 +23.7 90 +35 +35 очень
душно
1012.7 992.8 +35.1 7
09 20.09 СВ 2 18 км 9/1 450 м
[Cu med, cong Ac trans Cs]
+28.5 +24.4 79 +40 +46 очень
душно
1013.4 993.7
12 20.09 ЮВ 2 18 км 8/5 450 м
[Cu med, cong Ac trans Ci sp]
+31.4 +24.2 66 +44 +52 опасность
перегрева
1011.1 991.7
15 20.09 ЮВ 2 18 км 8/3 450 м
[Cu med, cong Ac trans Cs]
+32.3 +23.4 59 +43 +48 опасность
перегрева
1009.5 990.1
21 20.09 штиль 0 16 км 8/4 330 м
[Cb cap Ac trans Ci sp]
+29.1 +25.2 80 +42 +42 опасность
перегрева
1012.1 992.5
00 21.09 ЮВ 2 16 км 6/0 300 м
[Ac trans Ci sp]
+24.8 +21.3 81 +31 +31 очень
душно
1011.4 991.5
03 21.09 В 2 16 км 9/5 300 м
[Sc Ac trans]
+25.1 +22.5 86 +33 +33 очень
душно
1010.7 990.9
09 21.09 ЮЗ 4 18 км 8/6 400 м
[Cu Sc Ac trans]
+28.7 +24.0 76 +40 +42 очень
душно
1013.6 993.9
12 21.09 ЮЗ 3 18 км 8/6 450 м
[Cb cap Ac trans]
+31.2 +24.5 68 +44 +49 опасность
перегрева
1012.7 993.2
15 21.09 ЮЗ 3 18 км 5/5 400 м
[Cu Sc]
+33.5 +24.4 59 +46 +51 опасность
перегрева
1009.9 990.6

 

Местоположение метеостанции Тамале (Гана): широта 9.50 долгота -0.85 высота над уровнем моря 173 м.

В архиве по умолчанию представлена погода в Тамале за последнюю неделю. Архивные данные за месяц целиком и за предыдущие месяцы, начиная с января 2011 года, Вы можете получить, выбрав интересующий диапазон дат из раскрывающегося списка и нажав кнопку "Ввод!".


*Определитесь, кто Вы:
робот инопланетянин человек

Внимание! Время в таблицах - всемирное. Для получения местного времени необходимо прибавить поправку, которая равна 1 ч.

Смотрите также архив погоды в соседних городах и на ближайших метеорологических станциях:

Погода в Йенди (Гана) (91 км)
Погода в Навронго (Гана) (158 км)
Погода в Манго (Того) (174 км)
Погода в Боле (Гана) (186 км)
Погода в По (Буркина-Фасо) (186 км)
Погода в Ва (Гана) (191 км)
Погода в Дапаоне (Того) (201 км)
Погода в Кет-Крачи (Гана) (207 км)
Погода в Ньамтугу (Того) (216 км)
Погода в Каре (Того) (222 км)

Пояснения к столбцам:

Ветер - указаны скорость ветра в м/с - средняя за 10 мин, порывы в срок и между сроками (в фигурных скобках) и направление, откуда дует ветер: С - северный, СВ - северо-восточный, В - восточный, ЮВ - юго-восточный, Ю - южный, ЮЗ - юго-западный, З - западный, СЗ - северо-западный.
Видимость - горизонтальная дальность видимости в метрах или километрах. При видимости от 1 до 10 км при отсутствии осадков обычно наблюдается дымка, при ухудшении видимости до 1 км и менее - туман. В сухую погоду видимость может ухудшаться дымом, пылью или мглою.
Явления - указаны атмосферные явления, наблюдавшиеся в срок или в последний час перед сроком; фигурными скобками обозначены явления, наблюдавшиеся между сроками (за 1-3 часа до срока); квадратными скобками обозначены град или гололедные отложения с указанием их диаметра в мм.
Облачность - указаны через наклонную черту общая и нижняя облачность в баллах и высота нижней границы облаков в метрах; квадратными скобками обозначены формы облаков: Ci - перистые, Cs - перисто-слоистые, Cc - перисто-кучевые, Ac - высококучевые, As - высокослоистые, Sc - слоисто-кучевые, Ns - слоисто-дождевые, Cu - кучевые, Cb - кучево-дождевые. Подробнее классификацию облаков см. в Атласе облаков (PDF).
T - Температура воздуха - температура, измеренная на высоте 2 м над землей.
Td - Температура точки росы - температура, при понижении до которой содержащийся в воздухе водяной пар достигнет насыщения.
f - Относительная влажность воздуха - влажноcть воздуха, измеренная на высоте 2 м над землей.
Te - Эффективная температура - температура, которую ощущает одетый по сезону человек в тени. Характеристика душности погоды. При расчете учитывается влияние влажности воздуха и скорости ветра на теплоощущения человека.
Tes - Эффективная температура на солнце - температура, которую ощущает человек, с поправкой на солнечный нагрев. Характеристика знойности погоды. Зависит от высоты солнца над горизонтом, облачности и скорости ветра. Ночью, в пасмурную погоду, а также при ветре 12 м/с и более поправка равна нулю.
P - Атмосферное давление - приведенное к уровню моря атмосферное давление.
Po - Атмосферное давление - измеренное на уровне метеостанции атмосферное давление.
Tmin - Минимальная температура - минимум температуры воздуха на высоте 2 м над землей.
Tmax - Максимальная температура - максимум температуры воздуха на высоте 2 м над землей.
R - Количество осадков - Количество выпавших осадков за период времени, мм. При наведении курсора мыши на число - период времени, за который выпало указанное количество осадков.
R24 - Количество осадков - Количество выпавших осадков за 24 часа, мм.
S - Снежный покров - Высота снежного покрова, см. При наведении курсора мыши на число - состояние снежного покрова и степень покрытия местности в баллах.